Philadelphia, PA

4:27 PM EST on December 09, 2019 (GMT -0500)
Philadelphia International

Weather History for KPHL - November, 2019

Change the Weather History Date:

Sunday, November 17, 2019

  Actual Average Record
Temperature  
Mean Temperature 38 °F 47 °F  
Max Temperature 44 °F 56 °F 72 °F (1987)
Min Temperature 32 °F 39 °F 21 °F (1933)
Degree Days  
Heating Degree Days 27 18  
Month to date heating degree days 371 258  
Since 1 July heating degree days 523 551  
Cooling Degree Days 0 0  
Month to date cooling degree days 0 0  
Year to date cooling degree days 1610 1300  
Moisture  
Dew Point 21 °F    
Average Humidity 52    
Maximum Humidity 70    
Minimum Humidity 32    
Precipitation  
Precipitation 0.00 in 0.10 in 1.58 in (1935)
Month to date precipitation 0.24 1.59  
Year to date precipitation 41.30 36.57  
Snow  
Snow 0.00 in 0.00 in 0.30 in (1935)
Month to date snowfall T 0.1  
Since 1 July snowfall T 0.1  
Since 1 September snowfall T 0.1  
Snow Depth 0.00 in    
Sea Level Pressure  
Sea Level Pressure 30.22 in    
Wind  
Wind Speed 14 mph ()    
Max Wind Speed 23 mph    
Max Gust Speed 28 mph    
Visibility 10.0 miles    
Events      
T = Trace of Precipitation, MM = Missing Value Source: Averaged Metar Reports

Daily Weather History Graph

Daily Weather History Graph

Search for Another Location

Airport or City:

Astronomy

Nov. 17, 2019 Rise Set
Actual Time 6:47 AM EST 4:43 PM EST
Civil Twilight 6:18 AM EST 5:12 PM EST
Nautical Twilight 5:45 AM EST 5:45 PM EST
Astronomical Twilight 5:13 AM EST 6:17 PM EST
Moon 9:17 PM EST (11/17) 11:31 AM EST (11/17)
Length of Visible Light 10h 53m
Length of Day
9h 55m
Waning Gibbous, 73% of the Moon is Illuminated
Nov 17
Waning Gibbous
Nov 19
Last Quarter
Nov 26
New
Dec 4
First Quarter
Dec 12
Full

Hourly Weather History & Observations

Time (EST) Temp. Windchill Dew Point Humidity Pressure Visibility Wind Dir Wind Speed Gust Speed Precip Events Conditions
12:54 AM 34.0 °F 23.4 °F 7.0 °F 32% 30.38 in 10.0 mi NNE 17.3 mph 27.6 mph N/A   Overcast
1:54 AM 33.1 °F 21.9 °F 8.1 °F 35% 30.37 in 10.0 mi NNE 18.4 mph - N/A   Overcast
2:54 AM 32.0 °F 20.5 °F 9.0 °F 38% 30.36 in 10.0 mi NNE 18.4 mph - N/A   Mostly Cloudy
3:54 AM 32.0 °F 21.6 °F 9.0 °F 38% 30.34 in 10.0 mi NNE 15.0 mph - N/A   Mostly Cloudy
4:54 AM 32.0 °F 22.1 °F 9.0 °F 38% 30.33 in 10.0 mi NE 13.8 mph - N/A   Mostly Cloudy
5:54 AM 32.0 °F 23.0 °F 10.0 °F 40% 30.32 in 10.0 mi NNE 11.5 mph - N/A   Overcast
6:21 AM 32.0 °F 21.2 °F 10.9 °F 42% 30.33 in 10.0 mi NE 16.1 mph - N/A   Overcast
6:54 AM 32.0 °F 22.5 °F 10.9 °F 42% 30.33 in 10.0 mi NE 12.7 mph - N/A   Overcast
7:54 AM 34.0 °F 25.5 °F 15.1 °F 46% 30.33 in 10.0 mi NNE 11.5 mph - N/A   Overcast
8:54 AM 35.1 °F 25.5 °F 17.1 °F 48% 30.32 in 10.0 mi NE 15.0 mph 24.2 mph N/A   Overcast
9:54 AM 37.0 °F 27.7 °F 19.0 °F 48% 30.30 in 10.0 mi NE 16.1 mph - N/A   Overcast
10:54 AM 41.0 °F 32.5 °F 23.0 °F 49% 30.28 in 10.0 mi NE 17.3 mph 23.0 mph N/A   Overcast
11:54 AM 42.1 °F 33.9 °F 26.1 °F 53% 30.24 in 10.0 mi NE 17.3 mph - N/A   Overcast
12:54 PM 43.0 °F 34.0 °F 27.0 °F 53% 30.20 in 10.0 mi NE 21.9 mph 26.5 mph N/A   Overcast
1:54 PM 44.1 °F 35.9 °F 28.9 °F 55% 30.17 in 10.0 mi NE 19.6 mph - N/A   Overcast
2:54 PM 44.1 °F 36.2 °F 30.9 °F 60% 30.16 in 10.0 mi NE 18.4 mph 26.5 mph N/A   Overcast
3:54 PM 43.0 °F 34.8 °F 30.0 °F 60% 30.14 in 10.0 mi NE 18.4 mph 24.2 mph N/A   Overcast
4:54 PM 42.1 °F 33.9 °F 30.0 °F 62% 30.13 in 10.0 mi NE 17.3 mph 25.3 mph N/A   Overcast
5:54 PM 42.1 °F 34.5 °F 28.9 °F 60% 30.13 in 10.0 mi NE 15.0 mph - N/A   Overcast
6:54 PM 41.0 °F 32.8 °F 30.0 °F 65% 30.11 in 10.0 mi NNE 16.1 mph - N/A   Overcast
7:54 PM 41.0 °F 33.5 °F 28.9 °F 62% 30.09 in 10.0 mi NNE 13.8 mph - N/A   Overcast
8:54 PM 41.0 °F 34.7 °F 30.0 °F 65% 30.08 in 10.0 mi NE 10.4 mph - N/A   Overcast
9:54 PM 39.9 °F 31.1 °F 30.0 °F 68% 30.05 in 10.0 mi NNE 17.3 mph - N/A   Overcast
10:54 PM 39.9 °F 31.4 °F 28.9 °F 65% 30.02 in 10.0 mi NE 16.1 mph 23.0 mph N/A   Overcast
11:54 PM 39.9 °F 33.4 °F 28.9 °F 65% 30.01 in 10.0 mi NNE 10.4 mph - N/A   Overcast